Flag for U.S.A. Weather past 2 weeks in Newport News, Virginia, U.S.A.

Now
65 °F

Sunny.


Feels Like: 65 °F
Forecast: 48 / 67 °F
Wind: 8 mph from Northwest

Location: Newport News / Williamsburg International Airport

Current Time: Apr 28, 2015 at 12:39:44 PM

Latest Report: Apr 28, 2015 at 11:54 AM


Visibility: 10 mi

Pressure: 29.91 "Hg

Humidity: 45%

Dew point: 43 °F

Location of Newport NewsLocation

Historic Weather in Newport News — Graph

°F

Newport News temperature yesterday

Maximum temperature yesterday: 65 °F (at 11:54 AM)
Minimum temperature yesterday: 43 °F (at 4:54 AM)
Average temperature yesterday: 55 °F

Past Weeks' High & Low Weather Summary

 TemperatureHumidityPressure
High82 °F (Apr 20, 2:54 PM)90% (Apr 18, 4:03 AM)30.40 "Hg (Apr 18, 4:03 AM)
Low42 °F (Apr 24, 5:54 AM)19% (Apr 24, 4:54 PM)29.61 "Hg (Apr 20, 5:54 PM)
Average62 °F63%29.95 "Hg
* Reported Apr 13 10:54 AM — Apr 28 10:54 AM, Newport News, Weather by CustomWeather, © 2015

Note: Actual official high and low records may vary slightly from our data, if they occured in-between our weather recording intervals... More about our weather records

Advertising

Newport News weather history for previous 24 hours

 ConditionsComfort  
Time TempWeatherWind HumidityBarometerVisibility
10:54 AM
Tue, Apr 28
62 °FSunny.6 mph46%29.92 "Hg10 mi
9:54 AM59 °FSunny.15 mph49%29.90 "Hg10 mi
8:54 AM56 °FSunny.14 mph55%29.90 "Hg10 mi
7:54 AM52 °FSunny.12 mph57%29.91 "Hg10 mi
6:54 AM48 °FClear.12 mph61%29.90 "Hg10 mi
5:54 AM48 °FClear.8 mph59%29.89 "Hg10 mi
4:54 AM49 °FClear.12 mph59%29.87 "Hg10 mi
3:54 AM51 °FClear.9 mph56%29.87 "Hg10 mi
2:54 AM52 °FClear.12 mph55%29.86 "Hg10 mi
1:54 AM53 °FClear.14 mph52%29.87 "Hg10 mi
12:54 AM53 °FClear.10 mph52%29.89 "Hg10 mi
11:54 PM
Mon, Apr 27
51 °FClear.8 mph54%29.88 "Hg10 mi
10:54 PM49 °FClear.No wind66%29.86 "Hg10 mi
9:54 PM54 °FPassing clouds.5 mph51%29.86 "Hg10 mi
8:54 PM57 °FClear.7 mph42%29.84 "Hg10 mi
7:54 PM61 °FMostly cloudy.9 mph38%29.81 "Hg10 mi
6:54 PM60 °FMore clouds than sun.3 mph56%29.80 "Hg10 mi
5:54 PM62 °FOvercast.3 mph50%29.78 "Hg10 mi
4:54 PM62 °FMostly cloudy.6 mph48%29.77 "Hg10 mi
3:54 PM61 °FOvercast.9 mph50%29.74 "Hg10 mi
2:54 PM63 °FOvercast.7 mph43%29.75 "Hg10 mi
1:54 PM64 °FPartly sunny.8 mph45%29.77 "Hg10 mi
12:54 PM63 °FScattered clouds.8 mph47%29.78 "Hg10 mi
Weather by CustomWeather, © 2015

See weather overviewHow to use our weather pages